Theta_e
286 286 285 285 285 285 285 284 284 283 282 281 281 281 280 280 280 280 280 280 280 280 281 280 280 281 281 281 281 281 281 281 279 282 284 285 285 285 287 288 289 290 291
286 285 285 285 285 284 284 283 283 282 281 280 279 279 279 279 279 278 278 279 278 278 278 278 278 279 278 279 279 279 279 280 279 278 280 281 282 284 285 285 286 287 289
285 285 285 285 284 284 283 282 281 280 279 279 278 278 277 277 277 278 278 278 278 278 278 277 277 277 276 277 277 276 277 277 278 278 278 280 281 283 282 284 284 286 288
285 285 284 285 284 283 282 281 280 279 278 277 277 276 276 276 276 277 277 277 278 278 277 277 276 276 275 275 275 275 276 276 276 276 276 277 278 280 282 281 281 285 285
284 284 284 285 284 282 281 279 278 277 277 276 276 275 275 275 275 276 277 277 277 276 276 276 276 275 275 275 275 275 274 274 274 274 274 275 275 276 276 278 278 281 282
284 284 285 284 282 280 278 277 276 275 274 274 273 273 272 273 273 275 276 276 275 275 274 274 274 275 274 275 275 276 276 274 273 273 273 272 273 275 276 276 275 275 274
283 283 282 282 279 278 277 275 274 274 273 273 272 272 272 272 272 275 275 275 274 274 273 273 273 273 274 273 274 275 275 276 277 275 273 273 273 274 275 274 274 275 275
283 282 281 279 278 276 274 274 273 273 272 272 272 271 271 271 272 273 274 274 274 273 273 273 272 273 273 273 273 274 274 275 275 276 276 276 276 277 277 276 276 277 278
281 281 279 278 276 274 273 273 273 272 271 271 271 270 269 269 271 273 273 273 273 273 273 273 273 273 275 276 276 274 275 276 278 279 279 280 280 280 280 278 276 275 273
281 280 279 277 275 273 273 272 272 271 270 270 270 269 268 267 269 271 273 273 272 273 274 274 276 275 277 278 276 275 274 275 276 277 277 278 279 279 279 278 277 273 273
280 278 276 275 273 273 271 271 270 269 268 267 267 268 267 267 268 271 273 273 273 273 274 274 275 276 277 278 277 275 274 276 275 275 275 276 277 277 278 278 278 276 274
277 275 273 271 272 270 268 268 267 267 266 266 266 267 269 268 269 271 273 274 275 274 273 274 275 276 275 275 274 274 275 274 272 272 272 272 273 274 275 276 277 277 278
273 272 270 269 269 268 267 267 267 267 267 268 267 268 268 269 270 271 272 274 275 274 275 275 274 273 272 271 271 271 270 269 269 268 268 269 271 272 273 273 274 275 275
271 269 268 267 267 266 268 268 268 268 268 268 267 267 268 269 270 271 272 273 274 275 274 270 270 269 269 269 267 268 267 267 266 266 267 268 270 270 270 271 271 272 272
270 269 269 268 266 268 267 269 268 269 268 267 267 267 268 269 270 272 274 274 275 275 271 268 266 265 265 266 266 266 266 266 266 266 266 266 267 268 269 271 271 271 270
269 269 269 269 268 268 268 268 269 270 271 272 273 273 273 272 274 273 274 275 274 272 267 264 263 264 263 264 264 264 265 265 266 265 265 266 266 267 268 269 271 270 270
271 269 268 267 268 267 266 266 266 267 268 269 270 271 272 273 273 273 273 274 269 268 263 263 262 263 263 263 264 264 263 265 265 265 265 266 266 267 267 268 269 270 270
267 265 268 268 267 267 266 265 264 263 263 264 265 265 267 269 271 271 272 270 264 263 261 261 261 262 262 262 263 263 263 263 264 264 265 265 266 266 266 267 268 268 269
264 265 265 265 264 264 263 263 262 262 262 261 262 263 263 265 267 269 268 263 261 260 261 260 261 261 261 261 262 262 262 262 263 263 264 265 266 266 266 266 267 267 268
261 260 261 263 262 262 262 261 261 261 260 260 260 261 262 260 261 263 262 260 259 259 260 259 260 260 260 260 261 261 261 262 262 263 264 265 266 267 266 265 266 267 267
262 261 259 260 260 260 260 260 260 260 259 260 260 261 263 261 262 262 261 260 259 259 259 259 259 259 259 259 260 260 260 261 261 262 263 264 265 265 266 266 266 267 268
259 259 259 258 259 259 259 259 259 258 258 258 259 260 263 263 262 261 260 259 259 259 258 258 258 258 259 258 259 259 259 259 260 262 263 263 264 266 266 266 266 267 267
258 258 258 257 257 256 256 257 257 257 258 258 258 258 259 259 259 259 258 258 257 257 258 257 257 257 258 258 259 259 258 258 259 260 260 262 265 265 265 265 265 265 266
258 258 257 257 257 257 257 257 257 256 256 257 257 257 258 258 258 258 257 257 256 256 257 256 256 256 256 256 258 258 259 259 260 260 261 263 265 265 265 265 265 265 266
257 257 257 257 256 256 256 256 256 256 257 257 257 257 258 258 257 256 256 255 255 255 255 255 256 256 256 255 255 255 256 257 257 260 264 266 265 264 264 264 264 265 265
257 257 257 257 257 257 257 257 257 257 257 258 258 258 258 257 256 256 255 254 254 254 255 255 255 254 254 255 256 257 258 261 262 266 266 266 264 264 264 264 264 264 264
Wind_Speed
11 10 10 8 8 7 6 6 6 5 4 3 3 3 4 4 5 5 5 5 6 7 8 8 10 10 8 9 9 9 10 10 13 13 12 14 18 17 14 13 13 14 12
11 11 10 9 8 8 7 6 5 5 4 3 1 2 3 5 5 5 5 5 7 8 9 10 11 9 12 11 9 13 12 13 12 19 15 12 16 17 17 17 13 12 14
12 12 11 10 10 9 8 7 6 5 4 3 1 2 3 4 5 5 6 7 8 8 9 10 11 11 12 10 12 12 12 11 12 13 16 12 12 12 16 15 14 14 12
13 13 12 12 11 9 8 7 6 5 4 3 1 1 3 4 5 5 7 8 8 8 9 10 11 12 13 13 13 14 13 13 13 13 13 13 12 12 11 13 13 10 11
14 14 14 11 10 9 7 6 5 4 3 2 2 2 3 4 3 7 8 9 10 10 10 10 11 13 18 17 11 13 15 12 11 12 13 13 13 12 12 11 14 13 13
14 14 13 10 9 9 8 7 5 4 3 3 3 4 4 3 6 9 10 9 10 11 11 11 11 13 14 18 20 21 19 14 14 12 13 15 18 14 12 11 12 13 16
12 10 9 10 10 9 8 7 6 5 4 4 5 5 5 5 7 10 12 9 10 10 11 11 11 10 14 14 17 21 20 22 23 17 17 16 17 16 15 15 15 14 14
11 9 9 10 10 9 8 7 6 5 6 6 7 5 4 5 8 11 12 10 9 10 11 12 13 14 14 16 17 16 17 16 17 14 16 17 17 16 16 16 17 16 14
11 11 11 11 10 10 9 8 6 5 6 7 6 4 5 6 9 11 11 9 9 10 11 12 13 16 20 24 18 17 17 16 19 29 30 31 32 31 26 14 12 12 13
11 11 11 11 10 9 9 8 5 5 6 6 5 5 5 7 10 11 10 7 9 9 11 12 16 18 24 26 18 17 18 14 14 16 15 19 23 20 27 18 12 13 13
7 8 9 10 9 9 8 6 6 6 6 6 6 5 6 7 8 10 11 8 8 9 10 10 10 22 25 26 28 17 19 21 19 14 12 11 11 12 11 12 13 13 13
8 8 9 9 8 7 7 7 6 6 6 6 6 6 5 6 9 10 11 12 13 10 11 9 11 23 28 29 23 25 26 22 10 10 10 10 10 11 10 11 13 13 13
7 8 8 8 7 7 7 7 5 6 5 6 6 5 5 4 5 10 12 13 15 11 10 13 20 21 21 17 20 23 16 9 9 9 10 11 11 11 15 14 14 15 16
8 8 7 8 8 7 6 6 6 6 6 6 6 6 5 5 5 5 6 8 12 11 6 6 12 14 14 14 11 12 9 9 10 10 10 11 11 11 11 10 11 11 11
7 7 8 7 8 7 8 7 7 7 7 6 6 6 6 6 6 9 11 8 8 8 7 6 8 8 8 8 9 9 9 9 9 9 10 10 11 11 11 10 10 10 11
8 7 7 6 6 6 6 6 12 14 14 16 17 13 7 13 14 14 17 16 12 13 5 6 7 7 8 9 9 10 9 10 10 10 10 10 11 11 11 11 11 10 11
8 8 6 6 6 6 5 6 6 6 10 12 14 14 14 15 13 16 14 15 9 8 3 5 6 7 8 8 9 10 11 10 12 10 10 10 11 11 13 11 11 11 11
4 2 4 4 5 5 5 6 5 6 6 5 5 7 10 13 16 13 14 6 4 2 4 6 6 7 7 8 9 10 10 10 10 10 10 11 11 11 12 12 11 12 12
4 3 3 4 4 4 5 5 6 6 6 6 6 6 5 9 12 14 6 3 4 5 5 6 6 7 8 9 9 9 10 10 11 11 10 10 11 11 12 12 12 16 16
3 3 3 3 4 5 5 6 6 6 7 6 6 7 3 3 4 4 3 3 4 5 6 6 7 7 8 8 9 9 9 10 10 10 10 11 11 10 11 13 12 13 12
2 3 3 4 5 5 5 6 6 7 7 7 7 7 11 7 7 5 5 5 5 6 6 7 7 7 7 8 8 9 9 10 9 10 10 10 11 11 11 11 12 12 12
2 3 3 4 4 5 6 6 7 7 8 8 7 7 12 6 6 5 5 5 6 6 6 7 7 7 7 8 9 9 10 10 10 10 11 11 11 11 10 11 11 11 11
3 3 3 3 4 5 5 6 7 7 8 8 7 6 5 5 5 6 6 6 6 6 6 7 8 8 7 7 8 9 10 9 9 10 11 11 11 10 10 11 11 10 10
2 3 4 4 4 5 5 6 7 7 8 7 7 6 6 6 6 7 6 6 6 7 7 7 7 9 8 8 8 9 8 9 9 11 15 12 10 11 9 9 9 11 9
2 3 3 4 4 5 6 6 7 7 7 7 7 6 7 6 7 7 7 6 6 7 8 7 7 10 11 11 12 14 14 17 14 15 11 9 9 11 9 7 9 9 10
4 4 4 4 5 5 6 7 7 7 7 7 7 6 7 7 7 7 7 6 7 7 9 7 9 12 13 12 13 14 15 17 15 19 5 6 6 7 7 8 10 7 9
Wind_Direction
158 153 144 145 147 139 139 150 143 136 137 101 55 33 17 360 0 347 348 347 339 333 329 326 319 322 310 309 302 293 288 287 285 289 292 297 298 298 297 296 292 293 290
169 164 165 162 162 164 166 156 154 153 145 125 104 38 1 354 346 334 330 330 328 326 326 321 318 321 313 310 304 301 296 293 288 290 288 293 290 299 298 296 291 285 286
177 176 177 178 182 179 172 171 177 170 154 138 101 13 338 334 329 320 326 323 322 317 315 313 310 312 307 306 304 300 301 300 296 292 295 298 293 292 291 295 296 291 281
185 187 188 190 190 184 181 180 183 184 168 156 139 306 318 319 302 311 314 313 309 309 307 306 307 304 303 307 302 300 297 297 297 293 293 300 300 304 293 291 290 292 295
192 193 198 194 190 184 180 182 185 186 164 170 202 279 296 295 307 320 315 312 308 308 305 303 299 306 300 294 292 296 300 298 297 295 292 294 300 310 303 305 294 298 295
197 203 200 190 178 185 183 186 189 190 189 205 235 248 274 281 309 304 311 308 305 303 304 306 302 299 296 302 296 294 293 292 287 293 294 286 294 302 302 295 289 291 292
192 194 180 176 182 188 188 191 199 205 212 228 236 238 253 278 290 302 307 297 298 299 300 300 301 300 301 298 298 294 290 284 279 283 284 286 289 291 295 293 286 281 284
195 188 184 180 187 185 189 200 202 207 225 234 237 234 262 282 295 302 300 295 293 291 295 297 297 300 300 301 293 285 278 275 272 269 265 268 272 276 273 275 276 275 274
198 199 189 185 185 185 195 199 205 215 226 239 236 237 266 286 295 296 301 296 291 293 294 293 297 297 295 291 291 291 285 274 269 270 271 274 275 276 278 282 279 283 283
202 200 186 182 181 183 194 195 202 217 234 240 247 250 258 273 283 288 295 287 294 298 299 295 289 295 301 301 296 288 284 302 302 287 276 276 277 274 275 274 279 276 277
180 167 174 180 174 182 183 190 196 214 236 243 258 259 258 255 267 283 286 287 291 299 301 303 301 301 306 314 311 308 302 307 307 299 296 294 289 278 268 263 263 264 271
166 170 173 166 171 175 181 187 204 215 232 244 256 264 243 250 257 278 288 291 299 301 296 299 304 320 320 314 316 310 309 315 310 299 299 296 296 296 294 293 288 280 270
164 171 165 163 174 173 187 202 215 218 239 250 250 262 263 256 267 285 295 295 298 295 293 310 329 318 320 318 321 321 327 319 314 307 303 299 300 304 303 296 290 284 281
176 172 164 173 183 188 201 209 218 226 233 239 246 257 265 271 281 279 291 285 274 296 327 321 319 324 318 318 319 327 325 321 316 303 301 304 302 299 294 294 292 288 283
173 173 183 191 195 199 217 218 223 231 231 237 238 243 259 273 274 277 290 296 297 321 346 330 325 322 321 323 322 321 323 323 318 315 309 305 301 300 295 297 289 284 275
179 183 191 195 198 210 221 234 237 242 241 246 258 261 258 248 271 294 287 298 331 341 340 313 309 310 314 318 317 319 320 320 320 318 307 303 302 301 300 299 284 274 277
184 182 191 208 212 218 225 239 254 224 254 261 266 272 274 274 285 282 289 296 5 1 308 297 296 303 309 309 311 315 316 318 315 308 308 304 302 301 303 299 298 291 282
181 138 201 211 224 227 233 240 241 248 256 254 248 276 277 274 271 280 283 333 325 316 276 284 291 297 303 304 308 309 311 311 310 308 306 301 301 302 304 300 299 298 299
175 197 214 233 238 245 246 247 251 255 255 262 282 270 265 276 277 272 319 279 272 273 274 280 286 291 295 296 298 299 304 300 303 302 302 303 302 302 301 297 296 297 295
211 239 234 243 244 242 246 249 253 253 257 257 256 261 261 234 245 239 244 251 257 262 269 274 280 281 284 289 293 297 299 297 299 299 301 303 302 305 301 299 298 299 298
229 230 240 249 248 250 251 250 252 251 251 253 254 252 245 236 249 245 255 253 255 264 271 275 280 280 283 287 287 290 293 292 294 296 299 304 303 306 303 299 298 298 297
236 253 251 258 268 261 259 262 262 261 261 262 265 260 267 273 263 260 258 256 258 263 267 271 275 277 280 283 287 289 290 289 292 296 301 302 299 306 305 304 304 305 305
196 216 232 245 252 262 261 258 261 260 260 258 260 264 259 255 255 255 259 261 262 263 261 260 265 271 274 272 275 279 283 282 288 295 293 296 301 307 309 307 310 311 315
222 249 265 271 275 277 273 275 274 263 265 267 263 259 259 260 260 263 263 263 263 265 265 262 260 264 276 276 280 280 276 276 280 282 285 286 301 309 311 311 313 317 318
241 255 258 269 271 273 278 273 272 268 266 262 263 259 259 260 263 264 264 262 263 267 268 265 268 273 274 274 274 278 278 282 280 279 280 287 300 308 311 312 324 323 334
257 258 264 264 263 265 271 278 278 274 270 268 265 262 264 264 265 266 268 266 268 269 272 272 268 270 277 281 278 279 284 291 295 294 284 302 316 320 327 333 340 343 346